[[{"header":{"parameterUnit":"m.s-1","parameterCategory":2,"la1":30.2991,"la2":30.254,"lo1":-89.0895,"lo2":-89.0444,"dy":0.0017,"dx":0.0017,"nx":28,"ny":28,"refTime":"2024-09-28T03:00:00:Z","depth":"0","parameterNumber":2,"parameterNumberName":"U-component_of_CURRENTS"},"data":[0,0,0,0,0,0,0,0,0,0,0,0,0,0,0,0,0,0,0,0,0,0,0,0,0,0,0,0,0,0,0,0,0,0,0,0,0,0,0,0,0,0,0,0,0,0,0,0,0,0,0,0,0,0,0,0,0,0,0.1535,0.1537,0,0.1701,0.1702,0.1704,0.1753,0.1753,0.1752,0.1752,0.1833,0.1835,0.1838,0,0,0,0,0,0,0,0,0,0,0,0,0,0.1353,0.1355,0.1535,0.1537,0.154,0.17,0.1702,0.1704,0.1753,0.1753,0.1752,0.1752,0.1832,0.1835,0.1838,0,0,0,0,0,0,0,0,0,0,0,0,0,0.1462,0.1356,0.1534,0.1587,0.1593,0.17,0.1702,0.1705,0.1753,0.1753,0.1752,0.1751,0.1831,0.1835,0.1838,0.1876,0,0,0.185,0.1852,0,0,0,0,0,0,0,0,0.1456,0.1468,0.1576,0.1583,0.1591,0.1709,0.1668,0.1759,0.1754,0.1688,0.1752,0.1751,0.1787,0.1794,0.1822,0.188,0.1883,0.1851,0.1853,0.1855,0.1856,0,0,0,0,0,0,0,0.1448,0.1462,0.1596,0.1579,0.1588,0.1634,0.1647,0.1686,0.1734,0.1694,0.1699,0.1724,0.1789,0.1818,0.1824,0.1884,0.185,0.1854,0.1856,0.1858,0.2018,0.202,0,0,0,0,0,0,0.1433,0.1455,0.1591,0.1601,0.1525,0.1638,0.1653,0.1668,0.1736,0.1748,0.1725,0.1726,0.1812,0.182,0.1827,0.1909,0.1855,0.1858,0.186,0.2016,0.2019,0.2021,0,0,0,0,0,0,0.1428,0.1443,0.1584,0.1536,0.1557,0.1641,0.1659,0.1672,0.1704,0.1761,0.177,0.1743,0.1812,0.1822,0.1876,0.1911,0.186,0.1863,0.2014,0.2017,0.202,0.2052,0,0,0,0,0,0,0.1422,0.144,0.1448,0.1534,0.156,0.1657,0.1661,0.1676,0.1722,0.1726,0.178,0.1787,0.1812,0.187,0.188,0.1916,0.1866,0.2012,0.2016,0.2019,0.2048,0.2055,0.2062,0,0,0,0,0,0.1414,0.1458,0.1447,0.1465,0.1567,0.1659,0.1677,0.1731,0.1724,0.1752,0.1786,0.1785,0.19,0.1875,0.1886,0.1923,0.201,0.2014,0.2019,0.2045,0.2054,0.2061,0,0,0,0,0,0,0.1416,0.147,0.146,0.1523,0.1578,0.1669,0.1712,0.1731,0.1782,0.178,0.181,0.1821,0.1885,0.19,0.1871,0.1982,0.1955,0.1962,0.1972,0.198,0.1987,0.1982,0.187,0,0,0,0,0,0.1408,0.1434,0.1496,0.1545,0.1567,0.1626,0.1669,0.1702,0.176,0.1782,0.1821,0.1863,0.1914,0.194,0.1987,0.2044,0.206,0.2076,0.2083,0.2088,0.2093,0.2164,0.2177,0.2035,0.2035,0.2035,0,0,0.1427,0.1458,0.1477,0.1543,0.1585,0.1647,0.165,0.1722,0.1773,0.1782,0.1858,0.1888,0.1935,0.2007,0.2036,0.2021,0.2135,0.2094,0.2098,0.21,0.217,0.2183,0.2196,0.2038,0.2038,0.2037,0,0,0.15,0.1494,0.1544,0.1579,0.1641,0.1674,0.1688,0.1768,0.1796,0.1868,0.189,0.1941,0.2016,0.2065,0.2095,0.2165,0.2168,0.2176,0.2207,0.2275,0.2287,0.2298,0.232,0.2332,0.2178,0.2178,0.2178,0,0.1526,0.1577,0.158,0.1637,0.1667,0.1681,0.1742,0.1787,0.1876,0.1891,0.1896,0.2005,0.2051,0.2128,0.2166,0.2182,0.2201,0.2169,0.2283,0.2294,0.2305,0.2325,0.2338,0.218,0.218,0.218,0.218,0,0.1637,0.1664,0.17,0.1748,0.1782,0.1838,0.1876,0.1908,0.1924,0.196,0.2025,0.2087,0.2142,0.2176,0.2202,0.2295,0.2277,0.2282,0.2258,0.2321,0.2337,0.2351,0.2183,0.2183,0.2182,0.2181,0,0,0.1724,0.1767,0.1772,0.1782,0.183,0.187,0.1925,0.1974,0.199,0.2059,0.2095,0.2202,0.22,0.2236,0.2265,0.2337,0.2439,0.2346,0.2349,0.2358,0.256,0.2412,0.2412,0.2463,0.2466,0.2469,0.2535,0,0.1805,0.189,0.1894,0.196,0.1995,0.1985,0.2025,0.2058,0.2075,0.2113,0.2155,0.2206,0.2231,0.2251,0.2331,0.2409,0.2478,0.2418,0.2507,0.2509,0.2362,0.2424,0.2255,0.2289,0.2548,0.255,0.2552,0,0.191,0.1937,0.2005,0.2012,0.2024,0.206,0.2062,0.2105,0.2136,0.2147,0.2183,0.2202,0.2299,0.2315,0.2471,0.2428,0.2506,0.2564,0.2568,0.2428,0.2386,0.2274,0.2303,0.2202,0.2572,0.257,0.2569,0,0.1946,0.2007,0.204,0.2052,0.2079,0.2086,0.2095,0.2111,0.2125,0.2158,0.2163,0.2247,0.2286,0.2406,0.25,0.2505,0.2656,0.2672,0.2607,0.2595,0.2467,0.2438,0.2399,0.2804,0.2804,0.2803,0.2803,0,0.2021,0.2053,0.2049,0.2069,0.2092,0.2095,0.2112,0.2125,0.2135,0.2138,0.2175,0.2186,0.232,0.2395,0.2504,0.2565,0.2655,0.2618,0.2613,0.2468,0.244,0.2356,0.2307,0.2806,0.2805,0.2805,0.2804,0,0.2079,0.2081,0.2115,0.2115,0.2114,0.2126,0.2122,0.2122,0.2127,0.2131,0.2138,0.2172,0.2242,0.2343,0.2515,0.2536,0.2532,0.2639,0.2424,0.2391,0.2197,0.2156,0.207,0.2053,0.2576,0.2573,0.257,0,0.2117,0.2139,0.2137,0.2135,0.2137,0.2142,0.2132,0.2129,0.2112,0.2107,0.2101,0.2144,0.2137,0.2269,0.2323,0.2423,0.2422,0.2324,0.2309,0.2157,0.2112,0.2064,0.2057,0.2159,0.2154,0.2149,0.2145,0,0.2177,0.2169,0.2188,0.2162,0.2148,0.2139,0.2116,0.2101,0.207,0.2054,0.2002,0.1988,0.2028,0.1991,0.2072,0.2142,0.2136,0.2225,0.2156,0.1842,0.1706,0.1694,0.212,0.2103,0.2107,0.211,0.2112,0.2114,0.2206,0.2216,0.2196,0.2174,0.2153,0.2094,0.2046,0.2007,0.1954,0.1845,0.1891,0.1775,0.1718,0.1773,0.1831,0.1735,0.1843,0.1696,0.168,0.1665,0.1568,0.1857,0.177,0.1773,0.1774,0.1776,0.1778,0,0.2187,0.219,0.219,0.2127,0.2061,0.2059,0.1987,0.1891,0.1772,0.1692,0.1615,0.1426,0.1352,0.1346,0.1252,0.1188,0.1242,0.1171,0.1097,0.1146,0.1473,0.1371,0.1084,0.1084,0.1084,0.1084,0.1084,0.1084,0.2175,0.2158,0.2142,0.2019,0.1967,0.1817,0.1749,0.1629,0.1525,0.1286,0.1108,0.1056,0.0942,0.0792,0.0702,0.0732,0.0741,0.0637,0.0764,0.0978,0.1028,0.1075,0.0969,0.0603,0.0602,0.0403,0.0401,0.0399]},{"header":{"parameterUnit":"m.s-1","parameterCategory":2,"la1":30.2991,"la2":30.254,"lo1":-89.0895,"lo2":-89.0444,"dy":0.0017,"dx":0.0017,"nx":28,"ny":28,"refTime":"2024-09-28T03:00:00:Z","depth":"0","parameterNumber":3,"parameterNumberName":"V-component_of_CURRENTS"},"data":[0,0,0,0,0,0,0,0,0,0,0,0,0,0,0,0,0,0,0,0,0,0,0,0,0,0,0,0,0,0,0,0,0,0,0,0,0,0,0,0,0,0,0,0,0,0,0,0,0,0,0,0,0,0,0,0,0,0,0.0114,0.0114,0,0.0073,0.0073,0.0072,0.0019,0.0018,0.0017,0.0016,-0.0007,-0.0007,-0.0007,0,0,0,0,0,0,0,0,0,0,0,0,0,0.0175,0.0174,0.0114,0.0114,0.0113,0.0073,0.0073,0.0072,0.0019,0.0018,0.0017,0.0016,-0.0008,-0.0007,-0.0007,0,0,0,0,0,0,0,0,0,0,0,0,0,0.0143,0.0174,0.0114,0.0081,0.0078,0.0073,0.0073,0.0072,0.0019,0.0018,0.0016,0.0015,-0.0008,-0.0007,-0.0007,0.0022,0,0,-0.0006,-0.0006,0,0,0,0,0,0,0,0,0.0145,0.0141,0.0087,0.0084,0.008,0.0049,0.0086,0.0056,0.002,0.0042,0.0016,0.0014,0.0014,0.0013,0.0008,0.0021,0.002,-0.0006,-0.0006,-0.0006,-0.0006,0,0,0,0,0,0,0,0.0147,0.0142,0.0098,0.0086,0.0082,0.0079,0.0072,0.008,0.0037,0.004,0.0036,0.0031,0.0012,0.0008,0.0007,0.002,-0.0006,-0.0006,-0.0005,-0.0005,0.0081,0.0083,0,0,0,0,0,0,0.0151,0.0144,0.01,0.0097,0.0109,0.0079,0.0072,0.0061,0.0036,0.0031,0.0032,0.0029,0.0008,0.0007,0.0006,0.0057,-0.0006,-0.0005,-0.0005,0.0079,0.0081,0.0083,0,0,0,0,0,0,0.0153,0.0148,0.0101,0.012,0.0114,0.0079,0.0067,0.0061,0.0052,0.003,0.0025,0.003,0.0007,0.0006,0.0024,0.0055,-0.0005,-0.0005,0.0076,0.0079,0.0082,0.0147,0,0,0,0,0,0,0.0155,0.0148,0.0142,0.012,0.0113,0.0108,0.0068,0.0061,0.0052,0.0046,0.0027,0.0023,0.0006,0.0024,0.0024,0.0054,-0.0005,0.0073,0.0078,0.0081,0.0142,0.0152,0.016,0,0,0,0,0,0.0157,0.0142,0.0142,0.0137,0.0105,0.0109,0.0106,0.0076,0.0053,0.0061,0.005,0.0023,0.0049,0.0026,0.0026,0.0056,0.0072,0.0076,0.0081,0.0138,0.015,0.016,0,0,0,0,0,0,0.0156,0.0135,0.0134,0.0112,0.0121,0.01,0.0093,0.0083,0.0079,0.0072,0.0047,0.0045,0.0073,0.0063,0.0038,0.0096,0.0058,0.0063,0.0101,0.0112,0.0121,0.0135,-0.0004,0,0,0,0,0,0.016,0.0145,0.0142,0.0128,0.0132,0.012,0.0115,0.0107,0.0099,0.0094,0.0085,0.0083,0.0096,0.01,0.0107,0.0139,0.0136,0.0161,0.017,0.0178,0.0191,0.0233,0.0247,0.0099,0.0099,0.0099,0,0,0.0154,0.0142,0.0132,0.0129,0.0126,0.0141,0.0113,0.0115,0.0129,0.0096,0.0111,0.0114,0.0112,0.0146,0.0159,0.0138,0.0215,0.0184,0.019,0.02,0.0239,0.0254,0.0266,0.0102,0.0101,0.0101,0,0,0.0149,0.0132,0.0131,0.0144,0.0152,0.0152,0.0158,0.0158,0.0159,0.0185,0.0168,0.0199,0.0202,0.022,0.0226,0.0295,0.0262,0.0291,0.0345,0.0386,0.0398,0.0409,0.0405,0.0415,0.0294,0.0295,0.0295,0,0.0142,0.0144,0.0135,0.0151,0.0156,0.0161,0.0179,0.0191,0.02,0.0217,0.0197,0.0246,0.0243,0.03,0.0322,0.0316,0.0314,0.0299,0.0397,0.0408,0.0418,0.0412,0.0422,0.0298,0.0298,0.0297,0.0297,0,0.0156,0.0159,0.0161,0.0181,0.0192,0.0207,0.0229,0.0252,0.0255,0.0274,0.033,0.0343,0.0372,0.0383,0.0369,0.0447,0.0412,0.0402,0.0366,0.0437,0.0425,0.0435,0.0304,0.0302,0.0301,0.03,0,0,0.0133,0.016,0.0164,0.0181,0.0208,0.0219,0.0258,0.03,0.0333,0.0367,0.0418,0.0461,0.0477,0.0487,0.0489,0.053,0.0592,0.0497,0.0498,0.0487,0.065,0.0619,0.0625,0.0594,0.0597,0.0599,0.0605,0,0.0148,0.0174,0.0186,0.0221,0.0238,0.026,0.0295,0.0338,0.0376,0.0434,0.0481,0.0529,0.0513,0.0536,0.058,0.0595,0.0623,0.0589,0.0589,0.0589,0.0548,0.0639,0.065,0.0658,0.0614,0.0616,0.0617,0,0.0171,0.0181,0.0209,0.0242,0.0252,0.0275,0.0332,0.0367,0.0456,0.0488,0.0561,0.0594,0.0673,0.0644,0.0713,0.0688,0.0676,0.0681,0.0681,0.064,0.0578,0.0586,0.0676,0.0657,0.0631,0.063,0.0629,0,0.0169,0.0201,0.0217,0.023,0.027,0.0288,0.0312,0.0386,0.0434,0.0532,0.0588,0.0671,0.0722,0.0748,0.0755,0.0738,0.0814,0.0786,0.0743,0.0738,0.0744,0.0736,0.0815,0.0832,0.0832,0.0832,0.0832,0,0.0183,0.0202,0.0217,0.0228,0.0257,0.0284,0.0339,0.0381,0.0471,0.0551,0.0616,0.0699,0.0755,0.0804,0.0789,0.08,0.0837,0.0776,0.0759,0.0764,0.0758,0.0735,0.0723,0.0832,0.0832,0.0832,0.0832,0,0.0193,0.0203,0.0222,0.0247,0.0259,0.0278,0.0343,0.0399,0.0471,0.0582,0.0618,0.0738,0.08,0.0824,0.0867,0.0844,0.0859,0.083,0.081,0.0792,0.0733,0.0723,0.0812,0.0861,0.0801,0.0801,0.08,0,0.0199,0.0208,0.0225,0.0241,0.0252,0.0288,0.0328,0.0393,0.0461,0.0607,0.0669,0.0766,0.0846,0.0888,0.0876,0.0852,0.0851,0.0825,0.0809,0.0759,0.0736,0.0751,0.0789,0.0829,0.0829,0.0829,0.0829,0,0.0204,0.0206,0.0222,0.0254,0.0282,0.0326,0.0385,0.0438,0.0536,0.0626,0.0751,0.0822,0.0879,0.0897,0.0864,0.0848,0.0853,0.0821,0.0805,0.0808,0.0801,0.0828,0.0755,0.0829,0.0829,0.0829,0.0829,0.0829,0.0202,0.0215,0.0237,0.0276,0.0314,0.0377,0.0423,0.0497,0.0595,0.0729,0.0781,0.0865,0.0884,0.0863,0.0854,0.0817,0.0841,0.0787,0.0787,0.0813,0.0857,0.076,0.0792,0.0792,0.0791,0.0791,0.0791,0,0.0199,0.0229,0.0264,0.0314,0.0372,0.0387,0.048,0.0531,0.0639,0.0721,0.0808,0.0833,0.0847,0.084,0.0802,0.0782,0.0833,0.0767,0.0806,0.0855,0.0795,0.0792,0.0784,0.0784,0.0784,0.0784,0.0784,0.0784,0.0201,0.0236,0.0269,0.0363,0.0407,0.0482,0.0536,0.0598,0.0659,0.0726,0.0747,0.0768,0.0765,0.0762,0.0755,0.076,0.0808,0.0783,0.0821,0.0755,0.0757,0.0759,0.0754,0.0739,0.0739,0.0917,0.0918,0.0919]}],[{"header":{"parameterUnit":"m.s-1","parameterCategory":2,"la1":30.2991,"la2":30.254,"lo1":-89.0895,"lo2":-89.0444,"dy":0.0017,"dx":0.0017,"nx":28,"ny":28,"refTime":"2024-09-28T03:00:00:Z","depth":"2","parameterNumber":2,"parameterNumberName":"U-component_of_CURRENTS"},"data":[0,0,0,0,0,0,0,0,0,0,0,0,0,0,0,0,0,0,0,0,0,0,0,0,0,0,0,0,0,0,0,0,0,0,0,0,0,0,0,0,0,0,0,0,0,0,0,0,0,0,0,0,0,0,0,0,0,0,0.0938,0.0938,0,0.1022,0.1023,0.1025,0.1133,0.1134,0.1135,0.1136,0.1345,0.135,0.1354,0,0,0,0,0,0,0,0,0,0,0,0,0,0.0867,0.0868,0.0938,0.0938,0.0939,0.1022,0.1023,0.1025,0.1133,0.1134,0.1136,0.1137,0.1344,0.1349,0.1355,0,0,0,0,0,0,0,0,0,0,0,0,0,0.0926,0.0869,0.0938,0.0997,0.1003,0.1021,0.1023,0.1026,0.1133,0.1134,0.1136,0.1137,0.1342,0.1349,0.1355,0.1365,0,0,0.1376,0.1379,0,0,0,0,0,0,0,0,0.0922,0.0929,0.0988,0.0993,0.0999,0.1062,0.1074,0.1143,0.1132,0.1091,0.1136,0.1138,0.1256,0.127,0.1291,0.1375,0.1384,0.1377,0.1381,0.1384,0.1386,0,0,0,0,0,0,0,0.0918,0.0926,0.0979,0.0988,0.0995,0.1017,0.1028,0.1088,0.1172,0.1095,0.1101,0.1098,0.1261,0.1284,0.1297,0.1387,0.1377,0.1383,0.1387,0.139,0.152,0.1519,0,0,0,0,0,0,0.0891,0.0922,0.0976,0.0981,0.0955,0.1016,0.1029,0.1046,0.1169,0.1186,0.1096,0.1102,0.1272,0.1289,0.1305,0.1416,0.1384,0.139,0.1394,0.152,0.152,0.1519,0,0,0,0,0,0,0.089,0.0896,0.0973,0.0946,0.0957,0.1015,0.1034,0.1047,0.1086,0.1167,0.1188,0.1123,0.1274,0.1295,0.137,0.1422,0.1393,0.14,0.1521,0.152,0.1519,0.158,0,0,0,0,0,0,0.0888,0.0896,0.0892,0.0945,0.0957,0.097,0.1032,0.1047,0.1077,0.1087,0.1196,0.1217,0.1277,0.1359,0.1376,0.1431,0.1405,0.1522,0.1521,0.152,0.1578,0.1581,0.1583,0,0,0,0,0,0.0886,0.0884,0.0892,0.0898,0.0953,0.0968,0.0976,0.1028,0.1076,0.1076,0.1166,0.1214,0.1363,0.1364,0.1385,0.1443,0.1523,0.1521,0.152,0.1577,0.158,0.1583,0,0,0,0,0,0,0.0869,0.0895,0.0906,0.0917,0.0927,0.0983,0.1002,0.1028,0.1098,0.1141,0.1218,0.1243,0.1326,0.1351,0.135,0.1464,0.1446,0.1448,0.1482,0.1486,0.1488,0.1449,0.1411,0,0,0,0,0,0.0853,0.0855,0.0878,0.0885,0.0903,0.0952,0.0966,0.1004,0.1068,0.1102,0.117,0.1251,0.1329,0.1381,0.1436,0.1505,0.1481,0.1544,0.1546,0.1548,0.1523,0.1544,0.1547,0.1514,0.1514,0.1514,0,0,0.0855,0.0862,0.0869,0.0878,0.0918,0.0934,0.097,0.101,0.1024,0.1115,0.118,0.1263,0.1342,0.1428,0.1466,0.1466,0.1536,0.1546,0.1549,0.1521,0.1543,0.1546,0.1549,0.1513,0.1513,0.1513,0,0,0.0876,0.087,0.0895,0.089,0.092,0.0934,0.094,0.0999,0.1029,0.1086,0.1169,0.1262,0.1363,0.1437,0.149,0.1521,0.1541,0.1552,0.1559,0.1581,0.1585,0.1588,0.1534,0.1531,0.1565,0.1565,0.1565,0,0.0884,0.0904,0.0899,0.0916,0.0908,0.0933,0.0954,0.0975,0.1041,0.1074,0.1106,0.1282,0.1361,0.1476,0.1507,0.1533,0.1523,0.1562,0.1588,0.159,0.1592,0.1536,0.1533,0.1568,0.1567,0.1567,0.1567,0,0.0897,0.093,0.0948,0.0962,0.0942,0.0964,0.0969,0.0981,0.1025,0.1067,0.1171,0.1278,0.1387,0.1437,0.1503,0.1576,0.1553,0.1587,0.1591,0.16,0.1539,0.1534,0.1571,0.1571,0.157,0.1569,0,0,0.0921,0.0954,0.0979,0.0962,0.0966,0.0941,0.0963,0.0979,0.0999,0.1084,0.1138,0.1296,0.1376,0.1433,0.1532,0.1566,0.1589,0.1598,0.1598,0.1557,0.1591,0.1456,0.1437,0.1656,0.1656,0.1656,0.1534,0,0.0956,0.0973,0.0991,0.0989,0.0973,0.0971,0.0957,0.0967,0.1015,0.1063,0.1189,0.1297,0.1368,0.1469,0.1511,0.1582,0.1584,0.1614,0.1573,0.1569,0.1463,0.1431,0.1368,0.1245,0.1529,0.1528,0.1528,0,0.099,0.096,0.0984,0.0941,0.0944,0.0934,0.089,0.0902,0.0977,0.1031,0.1163,0.1278,0.1394,0.1444,0.151,0.1538,0.1556,0.1577,0.1574,0.1418,0.1426,0.1285,0.1225,0.152,0.1521,0.1521,0.1522,0,0.0959,0.0973,0.0968,0.0949,0.0905,0.0902,0.0881,0.0907,0.0937,0.1048,0.1126,0.1245,0.1362,0.1389,0.148,0.151,0.1499,0.1541,0.1403,0.1391,0.1305,0.1285,0.1537,0.1537,0.1537,0.1538,0.1538,0,0.0982,0.0955,0.0938,0.0927,0.0865,0.0838,0.0851,0.0857,0.0921,0.0997,0.1136,0.1228,0.137,0.1425,0.1439,0.1387,0.1464,0.1361,0.1352,0.1316,0.13,0.1524,0.1524,0.1533,0.1534,0.1535,0.1536,0,0.0966,0.0985,0.0935,0.089,0.0881,0.0819,0.0844,0.0853,0.0911,0.102,0.1086,0.1235,0.13,0.1362,0.1407,0.1343,0.1298,0.1263,0.1168,0.1148,0.1168,0.1173,0.105,0.1044,0.1039,0.1035,0.1032,0,0.0966,0.0961,0.0931,0.0915,0.0909,0.0853,0.0854,0.0865,0.0909,0.1027,0.1088,0.1204,0.1268,0.1207,0.1157,0.1062,0.1191,0.0917,0.0947,0.1114,0.1119,0.1132,0.1142,0.085,0.0845,0.0841,0.0838,0,0.0944,0.0964,0.0929,0.0913,0.0903,0.09,0.091,0.0926,0.0981,0.1025,0.1108,0.1149,0.1129,0.1026,0.0897,0.084,0.0915,0.0828,0.1062,0.0973,0.0913,0.0923,0.0943,0.0804,0.0808,0.081,0.0812,0.0813,0.0945,0.0892,0.0926,0.088,0.0908,0.0965,0.0948,0.0967,0.0993,0.103,0.1083,0.1038,0.0964,0.0722,0.0658,0.0599,0.0649,0.0606,0.0624,0.0645,0.0634,0.0569,0.0388,0.0389,0.039,0.039,0.0391,0,0.0934,0.0905,0.0893,0.0884,0.0939,0.0977,0.1,0.0953,0.0943,0.0944,0.0953,0.0757,0.0626,0.058,0.0425,0.0322,0.0392,0.0316,0.0446,0.0476,0.0503,0.0494,0.0206,0.0206,0.0206,0.0206,0,0,0.0925,0.0872,0.0835,0.0907,0.0965,0.1007,0.1012,0.0927,0.0865,0.0756,0.0672,0.0642,0.0545,0.0388,0.0322,0.0271,0.0395,0.025,0.0392,0.0578,0.0607,0.0645,0.0658,0,0,0,0,0]},{"header":{"parameterUnit":"m.s-1","parameterCategory":2,"la1":30.2991,"la2":30.254,"lo1":-89.0895,"lo2":-89.0444,"dy":0.0017,"dx":0.0017,"nx":28,"ny":28,"refTime":"2024-09-28T03:00:00:Z","depth":"2","parameterNumber":3,"parameterNumberName":"V-component_of_CURRENTS"},"data":[0,0,0,0,0,0,0,0,0,0,0,0,0,0,0,0,0,0,0,0,0,0,0,0,0,0,0,0,0,0,0,0,0,0,0,0,0,0,0,0,0,0,0,0,0,0,0,0,0,0,0,0,0,0,0,0,0,0,-0.0106,-0.0107,0,-0.0161,-0.0161,-0.0161,-0.019,-0.0191,-0.0192,-0.0192,-0.0212,-0.0212,-0.0212,0,0,0,0,0,0,0,0,0,0,0,0,0,-0.0004,-0.0005,-0.0106,-0.0107,-0.0109,-0.0161,-0.0161,-0.0161,-0.019,-0.0191,-0.0192,-0.0193,-0.0212,-0.0212,-0.0212,0,0,0,0,0,0,0,0,0,0,0,0,0,-0.0046,-0.0006,-0.0106,-0.0135,-0.0138,-0.0161,-0.0161,-0.0161,-0.019,-0.0191,-0.0192,-0.0193,-0.0212,-0.0212,-0.0212,-0.019,0,0,-0.0211,-0.0211,0,0,0,0,0,0,0,0,-0.0043,-0.0049,-0.0129,-0.0133,-0.0137,-0.0176,-0.0133,-0.0172,-0.019,-0.0163,-0.0192,-0.0194,-0.0201,-0.0202,-0.02,-0.0191,-0.0192,-0.0211,-0.0211,-0.0211,-0.0211,0,0,0,0,0,0,0,-0.004,-0.0046,-0.0121,-0.0131,-0.0135,-0.0138,-0.0144,-0.014,-0.0169,-0.0165,-0.0169,-0.0186,-0.0202,-0.02,-0.0201,-0.0192,-0.0211,-0.0211,-0.0211,-0.0211,-0.0171,-0.017,0,0,0,0,0,0,-0.0048,-0.0044,-0.0119,-0.0123,-0.01,-0.014,-0.0147,-0.0157,-0.017,-0.0175,-0.0185,-0.0188,-0.02,-0.0201,-0.0202,-0.018,-0.0211,-0.0211,-0.0211,-0.0172,-0.0171,-0.017,0,0,0,0,0,0,-0.0046,-0.0054,-0.0117,-0.0091,-0.01,-0.0141,-0.0152,-0.0157,-0.0161,-0.0187,-0.0191,-0.0185,-0.0201,-0.0202,-0.0195,-0.0181,-0.0211,-0.0211,-0.0173,-0.0172,-0.0171,-0.0135,0,0,0,0,0,0,-0.0042,-0.0052,-0.0058,-0.0091,-0.0102,-0.013,-0.0152,-0.0158,-0.0173,-0.0176,-0.0187,-0.019,-0.0202,-0.0195,-0.0195,-0.0181,-0.0211,-0.0175,-0.0173,-0.0171,-0.0137,-0.0132,-0.0128,0,0,0,0,0,-0.0038,-0.0058,-0.0057,-0.0067,-0.0109,-0.0131,-0.0135,-0.0163,-0.0172,-0.0169,-0.0175,-0.019,-0.0184,-0.0194,-0.0194,-0.018,-0.0175,-0.0173,-0.0171,-0.0139,-0.0133,-0.0128,0,0,0,0,0,0,-0.0028,-0.0064,-0.0064,-0.0095,-0.0106,-0.0138,-0.0151,-0.0158,-0.0159,-0.0164,-0.0177,-0.0179,-0.0169,-0.0175,-0.0187,-0.0163,-0.0182,-0.018,-0.0158,-0.0152,-0.0148,-0.0137,-0.0211,0,0,0,0,0,-0.0023,-0.0042,-0.0066,-0.0089,-0.0095,-0.0113,-0.0126,-0.0139,-0.0152,-0.0154,-0.0163,-0.0166,-0.0157,-0.0157,-0.0156,-0.014,-0.0149,-0.0131,-0.0126,-0.0123,-0.0113,-0.011,-0.0105,-0.0163,-0.0163,-0.0163,0,0,-0.0032,-0.0052,-0.0065,-0.0087,-0.0099,-0.0101,-0.0122,-0.0142,-0.0141,-0.0155,-0.0154,-0.0151,-0.0149,-0.0135,-0.013,-0.0141,-0.0111,-0.012,-0.0117,-0.0109,-0.0108,-0.0102,-0.0097,-0.0162,-0.0162,-0.0162,0,0,-0.0049,-0.0065,-0.0076,-0.0074,-0.0091,-0.0102,-0.0104,-0.0123,-0.0129,-0.0122,-0.0129,-0.0113,-0.0113,-0.0103,-0.0097,-0.0064,-0.0087,-0.0067,-0.0036,-0.0034,-0.0029,-0.0025,-0.0035,-0.0032,-0.0065,-0.0065,-0.0065,0,-0.0057,-0.0065,-0.0082,-0.0076,-0.0083,-0.0098,-0.0097,-0.0098,-0.0112,-0.0105,-0.012,-0.0086,-0.0094,-0.0053,-0.0048,-0.0053,-0.0063,-0.0059,-0.0028,-0.0024,-0.0021,-0.0032,-0.003,-0.0063,-0.0064,-0.0064,-0.0064,0,-0.0076,-0.0063,-0.007,-0.0064,-0.007,-0.0075,-0.008,-0.0078,-0.0086,-0.0079,-0.0048,-0.0043,-0.0017,-0.0018,-0.0026,0.0007,-0.0012,-0.0024,-0.0044,-0.0013,-0.0027,-0.0025,-0.006,-0.0061,-0.0062,-0.0062,0,0,-0.0136,-0.0092,-0.0094,-0.0065,-0.0062,-0.0071,-0.0062,-0.0053,-0.0033,-0.0027,0.0012,0.0026,0.0043,0.0052,0.0055,0.0055,0.0062,0.0025,0.0024,0.0012,0.0057,0.0102,0.0108,0.0051,0.0052,0.0053,0.0034,0,-0.014,-0.0117,-0.0108,-0.0079,-0.0054,-0.0052,-0.004,-0.0029,-0.0015,0.0024,0.0052,0.0091,0.0067,0.0092,0.0092,0.0082,0.007,0.0068,0.0032,0.0031,0.0065,0.0114,0.0068,0.0054,0.0036,0.0036,0.0036,0,-0.0146,-0.0129,-0.0106,-0.0049,-0.0047,-0.0043,-0.0022,-0.0012,0.0044,0.0064,0.012,0.0153,0.0193,0.0158,0.0153,0.0151,0.0104,0.008,0.0079,0.0113,0.0081,0.0022,0.0058,0.004,0.0039,0.0039,0.0039,0,-0.0157,-0.0115,-0.0101,-0.0085,-0.0044,-0.0042,-0.0036,0.0001,0.0029,0.0104,0.0158,0.0205,0.0253,0.0213,0.019,0.0164,0.0172,0.0128,0.012,0.0121,0.0075,0.0073,0.0102,0.0102,0.0102,0.0102,0.0102,0,-0.0145,-0.0124,-0.0101,-0.0087,-0.0079,-0.0048,-0.0023,-0.0006,0.0067,0.0137,0.0185,0.027,0.0268,0.0292,0.0221,0.0205,0.0197,0.0144,0.0133,0.0087,0.0086,0.0066,0.0062,0.0101,0.0101,0.0102,0.0102,0,-0.0135,-0.012,-0.0097,-0.0077,-0.0071,-0.0076,-0.0028,0.0014,0.0074,0.0177,0.0215,0.0326,0.0367,0.0352,0.0313,0.027,0.0225,0.0205,0.0158,0.0144,0.0153,0.0151,0.0193,0.0195,0.0196,0.0197,0.0198,0,-0.0133,-0.0111,-0.0108,-0.0107,-0.0102,-0.0085,-0.0056,-0.0003,0.0068,0.022,0.0289,0.0386,0.0462,0.0448,0.0389,0.0307,0.0273,0.0217,0.0169,0.0184,0.0168,0.0164,0.016,0.0101,0.0101,0.0101,0.0101,0,-0.0124,-0.0128,-0.0115,-0.0104,-0.0095,-0.006,0.0001,0.006,0.0167,0.0268,0.0422,0.0491,0.0512,0.0462,0.039,0.0324,0.0236,0.0221,0.0251,0.0108,0.0102,0.0085,0.0083,0.0102,0.0102,0.0102,0.0102,0.0102,-0.013,-0.0128,-0.0101,-0.0087,-0.0059,0.0014,0.0064,0.0159,0.0279,0.044,0.049,0.0553,0.0482,0.0388,0.033,0.0276,0.027,0.0192,0.0188,0.0185,0.0202,0.0202,0.0221,0.0222,0.0222,0.0223,0.0223,0,-0.0123,-0.0096,-0.0073,-0.0032,0.0042,0.0038,0.0151,0.0217,0.0373,0.0444,0.0546,0.0463,0.0409,0.0335,0.0244,0.0201,0.0168,0.0184,0.0114,0.0113,0.0112,0.0122,0.0122,0.0122,0.0122,0.0122,0,0,-0.0112,-0.0076,-0.0044,0.008,0.0123,0.0217,0.0288,0.0356,0.0411,0.0478,0.048,0.0474,0.0375,0.0276,0.021,0.0164,0.0156,0.0164,0.0241,0.0164,0.0164,0.0107,0.0122,0,0,0,0,0]}],[{"header":{"parameterUnit":"m.s-1","parameterCategory":2,"la1":30.2991,"la2":30.254,"lo1":-89.0895,"lo2":-89.0444,"dy":0.0017,"dx":0.0017,"nx":28,"ny":28,"refTime":"2024-09-28T03:00:00:Z","depth":"4","parameterNumber":2,"parameterNumberName":"U-component_of_CURRENTS"},"data":[0,0,0,0,0,0,0,0,0,0,0,0,0,0,0,0,0,0,0,0,0,0,0,0,0,0,0,0,0,0,0,0,0,0,0,0,0,0,0,0,0,0,0,0,0,0,0,0,0,0,0,0,0,0,0,0,0,0,-0.0426,-0.0426,0,-0.0472,-0.0473,-0.0474,-0.0512,-0.0513,-0.0513,-0.0513,-0.0659,-0.0662,-0.0666,0,0,0,0,0,0,0,0,0,0,0,0,0,-0.0204,-0.0209,-0.0426,-0.0426,-0.0427,-0.0472,-0.0473,-0.0474,-0.0512,-0.0513,-0.0513,-0.0513,-0.0658,-0.0662,-0.0666,0,0,0,0,0,0,0,0,0,0,0,0,0,-0.0283,-0.0211,-0.0426,-0.045,-0.0452,-0.0472,-0.0473,-0.0474,-0.0512,-0.0513,-0.0513,-0.0513,-0.0656,-0.0661,-0.0667,-0.0694,0,0,-0.0684,-0.0686,0,0,0,0,0,0,0,0,-0.0278,-0.0291,-0.0446,-0.0448,-0.0451,-0.0485,-0.0448,-0.0552,-0.0512,-0.0492,-0.0513,-0.0513,-0.0608,-0.0618,-0.0627,-0.07,-0.0707,-0.0684,-0.0687,-0.069,-0.0691,0,0,0,0,0,0,0,-0.0273,-0.0288,-0.0446,-0.0446,-0.0449,-0.0401,-0.0415,-0.0467,-0.0551,-0.0493,-0.0496,-0.0498,-0.0611,-0.0622,-0.0631,-0.0709,-0.0684,-0.0689,-0.0692,-0.0694,-0.087,-0.0871,0,0,0,0,0,0,-0.0273,-0.0285,-0.0445,-0.0447,-0.0362,-0.0405,-0.042,-0.0475,-0.0548,-0.0558,-0.0497,-0.0499,-0.0612,-0.0625,-0.0637,-0.0685,-0.069,-0.0695,-0.0698,-0.0869,-0.087,-0.0872,0,0,0,0,0,0,-0.0269,-0.0289,-0.0443,-0.0361,-0.0377,-0.041,-0.0471,-0.0476,-0.0499,-0.055,-0.0562,-0.0516,-0.0613,-0.0629,-0.0709,-0.0691,-0.0697,-0.0702,-0.0867,-0.0869,-0.0871,-0.0774,0,0,0,0,0,0,-0.0264,-0.0289,-0.0312,-0.0364,-0.0382,-0.0464,-0.047,-0.0477,-0.0498,-0.0502,-0.057,-0.0582,-0.0614,-0.07,-0.0714,-0.0698,-0.0707,-0.0865,-0.0868,-0.087,-0.0776,-0.0773,-0.077,0,0,0,0,0,-0.0256,-0.0313,-0.0315,-0.0332,-0.0422,-0.0464,-0.047,-0.0492,-0.0499,-0.0513,-0.057,-0.0581,-0.0726,-0.0707,-0.0722,-0.0707,-0.0864,-0.0867,-0.087,-0.0777,-0.0773,-0.077,0,0,0,0,0,0,-0.0239,-0.0324,-0.0326,-0.0408,-0.0427,-0.0471,-0.0493,-0.0497,-0.0549,-0.0566,-0.0608,-0.0626,-0.0685,-0.0727,-0.0704,-0.0771,-0.0793,-0.08,-0.0717,-0.0714,-0.0712,-0.0679,-0.0711,0,0,0,0,0,-0.0241,-0.0304,-0.0352,-0.0409,-0.0432,-0.0457,-0.0472,-0.0487,-0.054,-0.0562,-0.0605,-0.0662,-0.0707,-0.0737,-0.0793,-0.0835,-0.0857,-0.0838,-0.0835,-0.0832,-0.082,-0.0857,-0.0855,-0.0882,-0.0882,-0.0882,0,0,-0.0255,-0.0298,-0.0339,-0.0405,-0.0435,-0.0464,-0.0471,-0.0514,-0.0523,-0.0573,-0.0622,-0.0663,-0.0723,-0.0765,-0.0793,-0.0797,-0.0836,-0.0836,-0.0832,-0.0822,-0.086,-0.0857,-0.0854,-0.0884,-0.0883,-0.0883,0,0,-0.0296,-0.0355,-0.0409,-0.0428,-0.0462,-0.0478,-0.049,-0.0538,-0.0551,-0.0588,-0.0628,-0.067,-0.0735,-0.077,-0.0794,-0.082,-0.0826,-0.0827,-0.0774,-0.081,-0.0806,-0.0804,-0.0811,-0.081,-0.0817,-0.0817,-0.0817,0,-0.0308,-0.0376,-0.0421,-0.0455,-0.0467,-0.0487,-0.0517,-0.0533,-0.0588,-0.0592,-0.0601,-0.0681,-0.0734,-0.077,-0.0763,-0.0808,-0.0813,-0.0769,-0.08,-0.0798,-0.0797,-0.0805,-0.0805,-0.0813,-0.0813,-0.0813,-0.0814,0,-0.0362,-0.0411,-0.0449,-0.0498,-0.051,-0.0551,-0.0566,-0.0578,-0.0581,-0.0581,-0.0613,-0.0671,-0.07,-0.0723,-0.074,-0.0754,-0.0753,-0.0792,-0.0791,-0.0788,-0.0798,-0.0799,-0.0806,-0.0808,-0.0809,-0.081,0,0,-0.0435,-0.0483,-0.0495,-0.0502,-0.0537,-0.0558,-0.0568,-0.0579,-0.0569,-0.0593,-0.0584,-0.0637,-0.0627,-0.0656,-0.0685,-0.071,-0.0698,-0.0721,-0.0725,-0.0696,-0.0737,-0.0686,-0.0683,-0.0722,-0.0722,-0.0723,-0.0738,0,-0.0467,-0.0518,-0.0531,-0.0565,-0.0595,-0.0594,-0.0584,-0.0581,-0.0575,-0.0571,-0.0597,-0.0602,-0.0612,-0.06,-0.0625,-0.0703,-0.07,-0.0688,-0.0773,-0.0776,-0.0704,-0.0683,-0.0724,-0.074,-0.074,-0.074,-0.0741,0,-0.0508,-0.0534,-0.0575,-0.0576,-0.0589,-0.059,-0.0568,-0.0557,-0.0541,-0.0525,-0.0515,-0.0527,-0.0552,-0.0561,-0.064,-0.0621,-0.0646,-0.0701,-0.0704,-0.0688,-0.0727,-0.0756,-0.0744,-0.0744,-0.0743,-0.0743,-0.0743,0,-0.0508,-0.056,-0.0585,-0.0595,-0.0604,-0.0593,-0.0567,-0.0538,-0.0514,-0.0477,-0.0464,-0.0484,-0.0505,-0.0545,-0.0636,-0.0614,-0.0743,-0.0742,-0.0716,-0.0713,-0.0795,-0.0798,-0.0767,-0.0767,-0.0767,-0.0767,-0.0767,0,-0.0531,-0.0556,-0.0583,-0.0598,-0.0594,-0.0575,-0.0537,-0.051,-0.0463,-0.0458,-0.0421,-0.0446,-0.0499,-0.058,-0.0628,-0.0686,-0.0732,-0.0688,-0.0711,-0.0755,-0.0754,-0.0795,-0.0798,-0.0768,-0.0768,-0.0768,-0.0768,0,-0.053,-0.0559,-0.0587,-0.0598,-0.0599,-0.0576,-0.0515,-0.0483,-0.0426,-0.0424,-0.0403,-0.0425,-0.0491,-0.0566,-0.0675,-0.0684,-0.0752,-0.0759,-0.0795,-0.0823,-0.068,-0.0679,-0.0671,-0.067,-0.0668,-0.0667,-0.0666,0,-0.0532,-0.0553,-0.0585,-0.0596,-0.0605,-0.0566,-0.0536,-0.0464,-0.0452,-0.0443,-0.0474,-0.0491,-0.0518,-0.0596,-0.069,-0.0734,-0.074,-0.0747,-0.0682,-0.0646,-0.0669,-0.067,-0.0671,-0.0664,-0.0663,-0.0663,-0.0662,0,-0.0531,-0.0549,-0.0565,-0.06,-0.0595,-0.0574,-0.0545,-0.0511,-0.0464,-0.0459,-0.045,-0.0438,-0.0518,-0.0561,-0.0601,-0.0659,-0.0727,-0.0731,-0.0732,-0.0671,-0.0637,-0.0661,-0.0663,-0.0657,-0.0658,-0.0659,-0.0659,0,-0.0522,-0.0524,-0.056,-0.057,-0.0591,-0.0575,-0.054,-0.0509,-0.0458,-0.0439,-0.0476,-0.0491,-0.053,-0.0529,-0.0614,-0.0613,-0.057,-0.054,-0.055,-0.0556,-0.0519,-0.0459,-0.0426,0,0,0,0,0,-0.0503,-0.0493,-0.0525,-0.0537,-0.0569,-0.0576,-0.0564,-0.0532,-0.0518,-0.0477,-0.0434,-0.0479,-0.047,-0.051,-0.048,-0.0609,-0.062,-0.0579,-0.0601,-0.0629,-0.0635,-0.0605,0,0,0,0,0,0,-0.0487,-0.051,-0.0509,-0.0519,-0.0524,-0.0544,-0.052,-0.0512,-0.0472,-0.046,-0.045,-0.0451,-0.0464,-0.0468,-0.0471,-0.0485,-0.0487,-0.0598,-0.0596,-0.0625,-0.0631,-0.0636,-0.0607,0,0,0,0,0]},{"header":{"parameterUnit":"m.s-1","parameterCategory":2,"la1":30.2991,"la2":30.254,"lo1":-89.0895,"lo2":-89.0444,"dy":0.0017,"dx":0.0017,"nx":28,"ny":28,"refTime":"2024-09-28T03:00:00:Z","depth":"4","parameterNumber":3,"parameterNumberName":"V-component_of_CURRENTS"},"data":[0,0,0,0,0,0,0,0,0,0,0,0,0,0,0,0,0,0,0,0,0,0,0,0,0,0,0,0,0,0,0,0,0,0,0,0,0,0,0,0,0,0,0,0,0,0,0,0,0,0,0,0,0,0,0,0,0,0,0.0304,0.0304,0,0.0348,0.0348,0.0349,0.0393,0.0394,0.0395,0.0395,0.0528,0.0531,0.0534,0,0,0,0,0,0,0,0,0,0,0,0,0,0.0194,0.0196,0.0304,0.0304,0.0305,0.0348,0.0348,0.0349,0.0393,0.0394,0.0395,0.0395,0.0527,0.0531,0.0534,0,0,0,0,0,0,0,0,0,0,0,0,0,0.0241,0.0197,0.0304,0.0332,0.0335,0.0347,0.0348,0.0349,0.0393,0.0394,0.0395,0.0396,0.0526,0.053,0.0535,0.0545,0,0,0.0548,0.055,0,0,0,0,0,0,0,0,0.0238,0.0245,0.0327,0.033,0.0333,0.0366,0.0358,0.0419,0.0393,0.0371,0.0395,0.0396,0.0481,0.0489,0.0495,0.0551,0.0557,0.0549,0.0551,0.0553,0.0555,0,0,0,0,0,0,0,0.0235,0.0243,0.0321,0.0328,0.0332,0.032,0.0329,0.0369,0.0423,0.0373,0.0377,0.0381,0.0484,0.049,0.0499,0.0559,0.0549,0.0553,0.0555,0.0557,0.0609,0.0607,0,0,0,0,0,0,0.0232,0.024,0.032,0.0323,0.0287,0.0322,0.0331,0.0355,0.042,0.0431,0.038,0.0383,0.0482,0.0493,0.0504,0.0531,0.0553,0.0558,0.056,0.061,0.0608,0.0607,0,0,0,0,0,0,0.023,0.0239,0.0318,0.0281,0.029,0.0323,0.0349,0.0355,0.0383,0.0424,0.0437,0.0404,0.0483,0.0497,0.057,0.0537,0.056,0.0564,0.0611,0.0609,0.0608,0.058,0,0,0,0,0,0,0.0227,0.0239,0.0246,0.0281,0.0292,0.0342,0.0348,0.0355,0.0383,0.0387,0.0449,0.0461,0.0485,0.0563,0.0574,0.0543,0.0567,0.0613,0.0611,0.0608,0.0583,0.0577,0.0573,0,0,0,0,0,0.0223,0.0232,0.0246,0.0255,0.0305,0.0342,0.0347,0.0372,0.0383,0.04,0.045,0.046,0.0552,0.0568,0.0581,0.055,0.0614,0.0611,0.0608,0.0585,0.0579,0.0573,0,0,0,0,0,0,0.0189,0.0238,0.0255,0.0279,0.0315,0.035,0.0364,0.0382,0.043,0.0452,0.0483,0.0499,0.0535,0.0552,0.0567,0.055,0.0568,0.0568,0.0546,0.054,0.0535,0.0522,0.0571,0,0,0,0,0,0.0184,0.0212,0.0253,0.0279,0.0297,0.0334,0.0349,0.0381,0.0427,0.045,0.0515,0.0542,0.0526,0.0547,0.0573,0.0593,0.0596,0.0566,0.0561,0.0557,0.0551,0.0516,0.0507,0.0597,0.0597,0.0597,0,0,0.0186,0.021,0.023,0.0273,0.0305,0.0342,0.0347,0.0396,0.043,0.0459,0.0555,0.0554,0.0531,0.0544,0.0556,0.0561,0.0539,0.0553,0.055,0.0546,0.0512,0.0503,0.0495,0.0595,0.0595,0.0596,0,0,0.0199,0.0223,0.0251,0.029,0.0343,0.0359,0.0378,0.0455,0.0488,0.056,0.0555,0.0549,0.0602,0.0558,0.0527,0.0511,0.052,0.0502,0.0468,0.0433,0.0426,0.0419,0.0443,0.0439,0.0492,0.0492,0.0492,0,0.0199,0.0238,0.0264,0.0307,0.0338,0.0371,0.0416,0.0443,0.0546,0.0551,0.0598,0.0581,0.0589,0.0496,0.048,0.0499,0.0503,0.0495,0.0428,0.0421,0.0414,0.0441,0.0436,0.049,0.049,0.0491,0.0491,0,0.024,0.0277,0.03,0.036,0.0394,0.0443,0.0488,0.0536,0.0575,0.0586,0.0574,0.0579,0.0539,0.0519,0.0497,0.0415,0.0444,0.0433,0.0446,0.0404,0.0434,0.043,0.0488,0.0488,0.0489,0.0489,0,0,0.0234,0.0311,0.0323,0.0352,0.0433,0.0459,0.0507,0.052,0.05,0.058,0.0541,0.0502,0.0479,0.0441,0.04,0.0367,0.0337,0.0378,0.0377,0.041,0.0303,0.0276,0.027,0.0312,0.031,0.0309,0.0355,0,0.0259,0.0319,0.0363,0.0427,0.0459,0.0506,0.0521,0.0541,0.0545,0.0529,0.0477,0.0437,0.0447,0.0402,0.0367,0.0326,0.0319,0.0328,0.0332,0.0333,0.0319,0.026,0.0303,0.0352,0.0351,0.035,0.035,0,0.0288,0.0314,0.0382,0.0424,0.0443,0.0491,0.0487,0.0506,0.0458,0.0457,0.0401,0.0365,0.0291,0.032,0.0266,0.0271,0.0289,0.0288,0.029,0.0266,0.0296,0.0393,0.0343,0.0343,0.0344,0.0344,0.0345,0,0.0248,0.0325,0.0367,0.0403,0.0457,0.0491,0.0507,0.0486,0.0471,0.0403,0.0367,0.0288,0.0242,0.0236,0.0246,0.0245,0.0222,0.0218,0.0231,0.0233,0.0261,0.0268,0.0208,0.0208,0.0208,0.0208,0.0207,0,0.026,0.0288,0.0357,0.0389,0.0412,0.0464,0.0458,0.0456,0.0413,0.0347,0.0317,0.0239,0.0216,0.0197,0.0225,0.0216,0.0213,0.0214,0.0219,0.0255,0.0259,0.0261,0.0267,0.0209,0.0209,0.0209,0.0208,0,0.0237,0.0286,0.0316,0.0376,0.0412,0.0424,0.0471,0.0427,0.0403,0.0318,0.0296,0.0204,0.0149,0.0175,0.0158,0.0179,0.0187,0.0207,0.0284,0.0297,0.0235,0.0238,0.0186,0.0185,0.0184,0.0183,0.0182,0,0.0234,0.0254,0.031,0.0335,0.0388,0.0422,0.043,0.0433,0.0379,0.028,0.0213,0.0147,0.0091,0.0077,0.0089,0.0157,0.0172,0.0212,0.0173,0.021,0.0222,0.0227,0.0232,0.0181,0.0181,0.018,0.018,0,0.0209,0.0227,0.0242,0.0298,0.0341,0.0347,0.036,0.0313,0.026,0.026,0.0135,0.0099,0.0033,0.0017,0.0094,0.0135,0.0184,0.0203,0.0204,0.0167,0.0204,0.0217,0.0223,0.0177,0.0177,0.0178,0.0178,0,0.0172,0.0165,0.0195,0.0245,0.0288,0.0262,0.026,0.0215,0.0179,0.0096,0.005,0.0004,-0.0007,0.0004,0.0055,0.0102,0.009,0.0121,0.0127,0.0131,0.0088,0.0125,0.0061,0,0,0,0,0,0.0137,0.013,0.0154,0.0175,0.0209,0.0254,0.0211,0.0183,0.0141,0.0062,0.0066,0.0015,0.001,-0.0016,0.002,0.0007,0.0087,0.0049,0.0124,0.0159,0.0163,0.0117,0,0,0,0,0,0,0.0112,0.0114,0.0125,0.0126,0.0156,0.0165,0.0143,0.0094,0.0045,0.0024,0.0019,0.0061,0.0054,0.0026,0.0044,0.0048,0.0102,0.0068,0.0069,0.0157,0.0161,0.0163,0.0118,0,0,0,0,0]}]]